DECAYED

STARLINK-2696, 48484 (Decayed)

Orbit data source: Space-Track

STARLINK-2696, 48484 was a payload satellite owned by SpaceX/Seattle (US) in LEO that was launched on Sun, 09 May 2021 UTC via an FALCON 9 launch vehicle from the Air Force Eastern Test Range (AFETR). Payload-class satellites include a variety of spacecraft equipped with specific instruments for various scientific and technological missions. These include communications satellites like Starlink; space stations such as the ISS; scientific satellites like the Hubble; Earth observation satellites from companies like Planet Labs, Umbra, and HawkEye 360; GPS; miniature CubeSats for education and research; and military/defense satellites.

Not visible in the next 10 days
Identifier
48484, 2021-040BJ
Orbit
Decayed
Country
Flag of USUS
Related business
Manufacturer
SpaceX/Seattle
Mission
Decayed Commercial Communications
Bus & Motor
STARLINK, Unknown motor
Mass
260 kg wet, ~248 kg dry
Launch date (UTC)
2021-05-09 (5 years ago)
Launch vehicle
FALCON 9
Launch site
Air Force Eastern Test Range (AFETR)
Object type
Payload
Rocket body
Debris
Shape & HBR
Box + 1 Pan, 10.1 m
Radar Cross Section
13.562 m², Large (>1 m²)

Expand to show TLE details & history
Last TLE update: 8 months ago

TLE from 8 months ago
0 STARLINK-2696
1 48484U 21040BJ  25298.55555405  .11667663  12056-4  39570-2 0  9995
2 48484  53.0153 348.4907 0006663  10.6198 349.4981 16.24797635247380
Epoch: 2025-10-25T13:19Z
TLE epoch observation values (Epoch: 2025-10-25T13:19:59.869Z)
Latitude
-0.00006°
Longitude
114.30679°
Altitude
203.164 km
Speed
7.788 km/s
True Right ascension
23h 13m 57s
True Declination
0° 00' 00"
Sunlit
Object was in full shadow at epoch
Visualization orbit readout
Latitude
Unknown
Longitude
Unknown
Altitude
Unknown
Speed
Unknown
Apparent Right ascension
Unknown
Apparent Declination
Unknown
Sunlit
N/A
Visualization observer readout
Local Sidereal Time
21:24:27
Azimuth
Unknown
Elevation
Unknown
Doppler factor
Unknown
Orbital elements
Apogee altitude
211.236 km
Perigee altitude
202.461 km
Semi-major axis
6,584.986 km
Eccentricity
0.00067
Inclination
53.0153°
RAAN
348.4907°
Arg. of periapsis
10.6198°
True anomaly
349.48417°
Mean anomaly
349.4981°
Eccentric anomaly
349.49114°
Mean motion
4.06173 °/min
Orbital period
88.63 mins
BSTAR
0.003957
Loading maneuver chart data...
Computing Atmospheric mass density...

Documentation

Showing up to 5 results
|